Tiempo cada hora Barletta

Hoy, 14 Mayo, Viernes

Tiempo Temperatura Precipitaciones Viento Presión Humedad
00:00 +13°C° 0 mm 6 mps 755 mmHg 70%
01:00 +13°C° 0 mm 6 mps 755 mmHg 71%
02:00 +13°C° 0 mm 6 mps 755 mmHg 72%
03:00 +13°C° 0 mm 5 mps 755 mmHg 74%
04:00 +12°C° 0 mm 5 mps 755 mmHg 75%
05:00 +14°C° 0 mm 5 mps 756 mmHg 69%
06:00 +15°C° 0 mm 5 mps 756 mmHg 63%
07:00 +17°C° 0 mm 6 mps 756 mmHg 57%
08:00 +20°C° 0 mm 5 mps 756 mmHg 48%
09:00 +21°C° 0 mm 4 mps 757 mmHg 39%
10:00 +23°C° 0 mm 4 mps 757 mmHg 29%
11:00 +25°C° 0 mm 4 mps 757 mmHg 28%
12:00 +25°C° 0 mm 4 mps 757 mmHg 27%
13:00 +26°C° 0 mm 5 mps 757 mmHg 26%
14:00 +26°C° 0 mm 4 mps 756 mmHg 27%
15:00 +25°C° 0 mm 4 mps 756 mmHg 29%
16:00 +25°C° 0 mm 4 mps 756 mmHg 30%
17:00 +22°C° 0 mm 4 mps 756 mmHg 39%
18:00 +20°C° 0 mm 3 mps 756 mmHg 47%
19:00 +18°C° 0 mm 2 mps 756 mmHg 56%
20:00 +17°C° 0 mm 3 mps 756 mmHg 59%
21:00 +17°C° 0 mm 3 mps 755 mmHg 62%
22:00 +16°C° 0 mm 3 mps 755 mmHg 65%
23:00 +16°C° 0.1 mm 3 mps 755 mmHg 66%

Mañana, 15 Mayo, Sábado

Tiempo Temperatura Precipitaciones Viento Presión Humedad
00:00 +15°C° 0.1 mm 4 mps 755 mmHg 67%
01:00 +15°C° 0.1 mm 5 mps 754 mmHg 68%
02:00 +14°C° 1.2 mm 4 mps 754 mmHg 75%
03:00 +14°C° 1.2 mm 4 mps 754 mmHg 83%
04:00 +13°C° 1.2 mm 4 mps 754 mmHg 90%
05:00 +13°C° 0.4 mm 4 mps 755 mmHg 87%
06:00 +14°C° 0.4 mm 4 mps 755 mmHg 84%
07:00 +14°C° 0.4 mm 5 mps 755 mmHg 81%
08:00 +15°C° 0.1 mm 5 mps 755 mmHg 77%
09:00 +17°C° 0.1 mm 4 mps 756 mmHg 73%
10:00 +17°C° 0.1 mm 4 mps 756 mmHg 69%
11:00 +19°C° 0 mm 4 mps 756 mmHg 61%
12:00 +21°C° 0 mm 4 mps 756 mmHg 52%
13:00 +25°C° 0 mm 4 mps 755 mmHg 44%
14:00 +22°C° 0 mm 4 mps 756 mmHg 50%
15:00 +21°C° 0 mm 4 mps 756 mmHg 56%
16:00 +20°C° 0 mm 3 mps 756 mmHg 62%
17:00 +19°C° 0 mm 3 mps 756 mmHg 65%
18:00 +19°C° 0 mm 2 mps 756 mmHg 68%
19:00 +18°C° 0 mm 2 mps 756 mmHg 71%
20:00 +17°C° 0 mm 2 mps 756 mmHg 74%
21:00 +16°C° 0 mm 2 mps 757 mmHg 77%
22:00 +15°C° 0 mm 2 mps 757 mmHg 81%
23:00 +15°C° 0 mm 2 mps 757 mmHg 80%

Pasado mañana, 16 Mayo, Domingo

Tiempo Temperatura Precipitaciones Viento Presión Humedad
00:00 +14°C° 0 mm 3 mps 757 mmHg 80%
01:00 +13°C° 0 mm 4 mps 757 mmHg 80%
02:00 +13°C° 0 mm 4 mps 757 mmHg 79%
03:00 +13°C° 0 mm 4 mps 756 mmHg 78%
04:00 +13°C° 0 mm 4 mps 756 mmHg 77%
05:00 +14°C° 0 mm 4 mps 756 mmHg 70%
06:00 +17°C° 0 mm 4 mps 756 mmHg 64%
07:00 +18°C° 0 mm 4 mps 757 mmHg 58%
08:00 +20°C° 0 mm 4 mps 757 mmHg 52%
09:00 +22°C° 0 mm 4 mps 757 mmHg 47%
10:00 +26°C° 0 mm 4 mps 757 mmHg 42%
11:00 +26°C° 0 mm 4 mps 756 mmHg 41%
12:00 +27°C° 0 mm 5 mps 756 mmHg 40%
13:00 +28°C° 0 mm 5 mps 756 mmHg 39%
14:00 +28°C° 0 mm 5 mps 756 mmHg 40%
15:00 +28°C° 0 mm 5 mps 756 mmHg 41%
16:00 +27°C° 0 mm 5 mps 755 mmHg 42%
17:00 +26°C° 0 mm 4 mps 755 mmHg 47%
18:00 +23°C° 0 mm 4 mps 756 mmHg 53%
19:00 +21°C° 0 mm 3 mps 756 mmHg 58%
20:00 +20°C° 0 mm 3 mps 756 mmHg 59%
21:00 +19°C° 0 mm 3 mps 756 mmHg 61%
22:00 +18°C° 0 mm 2 mps 756 mmHg 63%
23:00 +18°C° 0 mm 3 mps 756 mmHg 66%

17 Mayo, Lunes

Tiempo Temperatura Precipitaciones Viento Presión Humedad
00:00 +17°C° 0 mm 3 mps 756 mmHg 69%
01:00 +17°C° 0 mm 3 mps 756 mmHg 72%
02:00 +17°C° 0 mm 3 mps 756 mmHg 70%
03:00 +17°C° 0 mm 3 mps 755 mmHg 69%
04:00 +17°C° 0 mm 3 mps 755 mmHg 68%
05:00 +18°C° 0 mm 3 mps 755 mmHg 61%
06:00 +20°C° 0 mm 3 mps 756 mmHg 54%
07:00 +22°C° 0 mm 3 mps 756 mmHg 47%
08:00 +25°C° 0 mm 3 mps 756 mmHg 44%
09:00 +27°C° 0 mm 3 mps 756 mmHg 42%
10:00 +29°C° 0 mm 3 mps 756 mmHg 39%
11:00 +30°C° 0 mm 3 mps 756 mmHg 38%
12:00 +30°C° 0 mm 4 mps 755 mmHg 37%
13:00 +32°C° 0 mm 4 mps 755 mmHg 36%
14:00 +32°C° 0 mm 4 mps 755 mmHg 36%
15:00 +32°C° 0 mm 4 mps 755 mmHg 36%
16:00 +32°C° 0 mm 4 mps 755 mmHg 36%
17:00 +28°C° 0 mm 3 mps 755 mmHg 43%
18:00 +26°C° 0 mm 3 mps 755 mmHg 50%
19:00 +24°C° 0 mm 2 mps 756 mmHg 56%
20:00 +24°C° 0 mm 2 mps 756 mmHg 57%
21:00 +22°C° 0 mm 3 mps 756 mmHg 58%
22:00 +22°C° 0 mm 4 mps 756 mmHg 58%
23:00 +21°C° 0 mm 4 mps 756 mmHg 59%

18 Mayo, Martes

Tiempo Temperatura Precipitaciones Viento Presión Humedad
00:00 +21°C° 0 mm 5 mps 756 mmHg 60%
01:00 +20°C° 0 mm 5 mps 756 mmHg 61%
02:00 +20°C° 0 mm 5 mps 756 mmHg 62%
03:00 +19°C° 0 mm 5 mps 756 mmHg 64%
04:00 +19°C° 0 mm 5 mps 756 mmHg 65%
05:00 +20°C° 0 mm 5 mps 756 mmHg 62%
06:00 +21°C° 0 mm 5 mps 756 mmHg 58%
07:00 +22°C° 0 mm 5 mps 756 mmHg 55%
08:00 +23°C° 0 mm 6 mps 756 mmHg 47%
09:00 +26°C° 0 mm 7 mps 756 mmHg 40%
10:00 +27°C° 0 mm 7 mps 757 mmHg 33%
11:00 +27°C° 0 mm 8 mps 757 mmHg 34%
12:00 +27°C° 0 mm 8 mps 757 mmHg 35%
13:00 +26°C° 0 mm 8 mps 758 mmHg 37%
14:00 +24°C° 0.1 mm 8 mps 758 mmHg 44%
15:00 +22°C° 0.1 mm 7 mps 759 mmHg 51%
16:00 +21°C° 0.1 mm 6 mps 759 mmHg 58%
17:00 +20°C° 0 mm 6 mps 759 mmHg 57%
18:00 +19°C° 0 mm 6 mps 760 mmHg 56%
19:00 +17°C° 0 mm 5 mps 760 mmHg 55%
20:00 +16°C° 0 mm 5 mps 760 mmHg 60%
21:00 +15°C° 0 mm 5 mps 761 mmHg 65%
22:00 +14°C° 0 mm 4 mps 761 mmHg 70%
23:00 +14°C° 0 mm 4 mps 761 mmHg 71%

19 Mayo, Miércoles

Tiempo Temperatura Precipitaciones Viento Presión Humedad
00:00 +13°C° 0 mm 4 mps 761 mmHg 72%
01:00 +13°C° 0 mm 3 mps 761 mmHg 73%
02:00 +13°C° 0 mm 3 mps 761 mmHg 73%
03:00 +14°C° 0 mm 2 mps 761 mmHg 73%
04:00 +14°C° 0 mm 2 mps 761 mmHg 72%
05:00 +16°C° 0 mm 2 mps 761 mmHg 67%
06:00 +18°C° 0 mm 1 mps 761 mmHg 62%
07:00 +20°C° 0 mm 1 mps 761 mmHg 57%
08:00 +22°C° 0 mm 1 mps 761 mmHg 51%
09:00 +24°C° 0 mm 2 mps 761 mmHg 44%
10:00 +25°C° 0 mm 2 mps 761 mmHg 37%
11:00 +26°C° 0 mm 3 mps 761 mmHg 34%
12:00 +27°C° 0 mm 4 mps 760 mmHg 30%
13:00 +28°C° 0 mm 5 mps 760 mmHg 27%
14:00 +28°C° 0 mm 5 mps 760 mmHg 30%
15:00 +27°C° 0 mm 5 mps 759 mmHg 33%
16:00 +27°C° 0 mm 5 mps 759 mmHg 35%
17:00 +25°C° 0 mm 4 mps 759 mmHg 41%
18:00 +23°C° 0 mm 4 mps 759 mmHg 47%
19:00 +21°C° 0 mm 3 mps 760 mmHg 53%
20:00 +20°C° 0 mm 4 mps 760 mmHg 58%
21:00 +19°C° 0 mm 4 mps 760 mmHg 63%
22:00 +16°C° 0 mm 5 mps 760 mmHg 68%
23:00 +16°C° 0 mm 5 mps 760 mmHg 69%
Mostrar más

Necesitamos Su Consentimiento

Meteoprog y nuestros Proveedores de Servicios pueden almacenar y acceder a sus datos personales como cookies, identificadores de dispositivo u otras tecnologías similares de su dispositivo y procesar dichos datos para personalizar contenido y anuncios, además de ofrecer funciones de redes sociales y analizar el tráfico.

  • Almacenar y/o acceder a información en su dispositivo

    Se puede almacenar o acceder a cookies, identificadores de dispositivo u otra información de su dispositivo para los fines anteriormente indicados.

  • Anuncios y contenido personalizados, medición de anuncios y contenido, percepciones del público, y desarrollo de productos

    Los anuncios y el contenido pueden personalizarse en base a su perfil. Se pueden añadir más datos para personalizar mejor los anuncios y contenidos. Se puede medir el rendimiento de los anuncios y contenidos. Se puede obtener la percepción sobre el público que ha visto los anuncios y contenidos. Dichos datos pueden usarse para desarrollar o mejorar la experiencia del usuario, sistemas y software.

Al hacer clic en ‘Estoy De Acuerdo’ usted permitirá el uso de las cookies, identificadores de dispositivo, balizas web u otras tecnologías similares indicadas. Su configuración puede cambiarse desde el navegador de su dispositivo.

Para ciertos fines, los intereses legítimos pueden ser considerados por encima del consentimiento. Puede leer más sobre ello en nuestra Política de Privacidad y Cookies.